SDM169 ULLI-ULOO

Flight info

Callsign SDM169
Flight time N/A
Altitude 25000
Route RUMO1A RUMOL N171 OTRIP RELSU ABMI3G
Aircraft A319/M-S/L

Departure

Time 2026-05-06 19:56
Airport Pulkovo Airport (ULLI)

Arrival

Time N/A
Airport Princess Olga Pskov International Airport (ULOO)
Time Latitude Longitude Altitude Speed Heading
2026-05-06 19:25 59.79607 30.26224 79 ft 0 kts 106°
2026-05-06 19:42 59.79607 30.26228 79 ft 1 kts 106°
2026-05-06 19:43 59.79603 30.26251 79 ft 2 kts 106°
2026-05-06 19:43 59.79601 30.26268 79 ft 0 kts 106°
2026-05-06 19:43 59.79601 30.26270 79 ft 0 kts 106°
2026-05-06 19:43 59.79599 30.26292 79 ft 2 kts 85°
2026-05-06 19:44 59.79610 30.26339 79 ft 5 kts 52°
2026-05-06 19:44 59.79647 30.26379 78 ft 7 kts 15°
2026-05-06 19:44 59.79705 30.26411 78 ft 9 kts 15°
2026-05-06 19:44 59.79777 30.26451 78 ft 11 kts 15°
2026-05-06 19:45 59.79823 30.26477 78 ft 0 kts 16°
2026-05-06 19:46 59.79826 30.26479 78 ft 1 kts 16°
2026-05-06 19:46 59.79828 30.26480 78 ft 0 kts 16°
2026-05-06 19:47 59.79841 30.26488 78 ft 4 kts 16°
2026-05-06 19:47 59.79894 30.26518 77 ft 11 kts 15°
2026-05-06 19:47 59.79977 30.26565 77 ft 13 kts 16°
2026-05-06 19:47 59.80071 30.26624 77 ft 14 kts 17°
2026-05-06 19:48 59.80174 30.26686 77 ft 15 kts 16°
2026-05-06 19:48 59.80285 30.26749 76 ft 17 kts 16°
2026-05-06 19:48 59.80371 30.26799 74 ft 10 kts 20°
2026-05-06 19:48 59.80389 30.26926 73 ft 11 kts 104°
2026-05-06 19:49 59.80364 30.27087 73 ft 13 kts 107°
2026-05-06 19:49 59.80336 30.27277 74 ft 16 kts 106°
2026-05-06 19:49 59.80300 30.27514 73 ft 19 kts 107°
2026-05-06 19:49 59.80259 30.27783 73 ft 21 kts 106°
2026-05-06 19:50 59.80216 30.28089 73 ft 23 kts 107°
2026-05-06 19:50 59.80170 30.28399 72 ft 23 kts 105°
2026-05-06 19:50 59.80122 30.28710 72 ft 23 kts 106°
2026-05-06 19:50 59.80076 30.29021 72 ft 23 kts 108°
2026-05-06 19:51 59.80027 30.29333 72 ft 23 kts 105°
2026-05-06 19:51 59.79983 30.29626 73 ft 18 kts 106°
2026-05-06 19:51 59.79948 30.29867 74 ft 17 kts 105°
2026-05-06 19:51 59.79958 30.30065 73 ft 12 kts 47°
2026-05-06 19:52 59.79978 30.30108 73 ft 0 kts 47°
2026-05-06 19:54 59.79983 30.30120 73 ft 2 kts 47°
2026-05-06 19:54 59.80000 30.30157 73 ft 5 kts 47°
2026-05-06 19:54 59.80038 30.30240 73 ft 10 kts 47°
2026-05-06 19:55 59.80107 30.30251 73 ft 13 kts 315°
2026-05-06 19:55 59.80150 30.30063 71 ft 18 kts 287°
2026-05-06 19:55 59.80264 30.29294 69 ft 98 kts 288°
2026-05-06 19:55 59.80519 30.27561 95 ft 160 kts 286°
2026-05-06 19:56 59.80848 30.25276 544 ft 182 kts 287°
2026-05-06 19:56 59.81237 30.22719 1134 ft 207 kts 289°
2026-05-06 19:56 59.81685 30.19934 1859 ft 223 kts 290°
2026-05-06 19:56 59.82185 30.16973 2675 ft 231 kts 291°
2026-05-06 19:57 59.82709 30.13987 3481 ft 234 kts 291°
2026-05-06 19:57 59.83273 30.10903 4341 ft 244 kts 292°
2026-05-06 19:57 59.83869 30.07749 5256 ft 251 kts 292°
2026-05-06 19:57 59.84504 30.04506 6241 ft 255 kts 293°
2026-05-06 19:58 59.85160 30.01255 7257 ft 258 kts 293°
2026-05-06 19:58 59.85592 29.97948 8429 ft 253 kts 269°
2026-05-06 19:58 59.85189 29.94585 9341 ft 259 kts 244°
2026-05-06 19:58 59.83981 29.91819 9991 ft 277 kts 214°
2026-05-06 19:59 59.82142 29.90643 10778 ft 293 kts 185°
2026-05-06 19:59 59.80120 29.91517 11379 ft 315 kts 157°
2026-05-06 19:59 59.78208 29.93850 11922 ft 334 kts 148°
2026-05-06 19:59 59.76270 29.96637 12370 ft 353 kts 147°
2026-05-06 20:00 59.74253 29.99570 12866 ft 367 kts 147°
2026-05-06 20:00 59.72177 30.02545 13603 ft 373 kts 148°
2026-05-06 20:00 59.70153 30.05404 14361 ft 376 kts 149°